Find Yaogan 39 02 zu 01 xing

NORAD ID: 57886 Int'l Des: 2023-145 Owner: ZZB Country: CN Constellation: yaogan operational
LEOCIRCULAR

实时位置

正在加载3D地球...

关于 Yaogan 39 02 zu 01 xing

正在加载描述...

即将过境

Passes for default location (London). Set your location on the main map for personalized predictions.

高度历史

Loading altitude history...

两行轨道根数

1 57886U 23145A 26107.04039812 .00007460 00000-0 31126-3 0 9995
2 57886 35.0026 224.9919 0002567 128.9052 231.1892 15.22961403143844
Epoch: Apr 17, 2026 • Age: 19 hours

当前状态

高度 501.3 km
速度 7.61 km/s
星下点 -17.34°S, 52.13°E
发射日期 Sep 17, 2023
运行时间 2.5 years
类型 military

技术详情

分类 Payload
质量 300.00 kg
干质量 300.00 kg
总质量 300.00 kg
长度 2.50 m
直径 2.50 m
跨度 5.00 m
形状 Box + 2 Pan
制造商 DFHZ
阶段状态 In Orbit
所有者/国家 ZZB/CN

Most Searched